AUA729 LOWW-LQSA

Flight info

Callsign AUA729
Flight time 0h 45m
Altitude 37000
Route STEIN DCT NOHAT DCT KOPRY DCT LURID DCT BOSNA
Aircraft A320/M-SDE3FGHIRWY/LB1

Departure

Time 2026-05-01 08:34
Airport Vienna International Airport (LOWW)

Arrival

Time 2026-05-01 09:20
Airport Sarajevo International Airport (LQSA)
Time Latitude Longitude Altitude Speed Heading
2026-05-01 08:22 48.11386 16.57247 624 ft 0 kts 206°
2026-05-01 08:30 48.11385 16.57246 610 ft 0 kts 206°
2026-05-01 08:30 48.11384 16.57246 610 ft 0 kts 206°
2026-05-01 08:30 48.11379 16.57242 610 ft 3 kts 206°
2026-05-01 08:31 48.11376 16.57240 610 ft 3 kts 206°
2026-05-01 08:31 48.11341 16.57216 616 ft 4 kts 197°
2026-05-01 08:31 48.11303 16.57263 615 ft 9 kts 128°
2026-05-01 08:31 48.11248 16.57283 616 ft 8 kts 197°
2026-05-01 08:32 48.11186 16.57240 610 ft 12 kts 206°
2026-05-01 08:32 48.11113 16.57186 612 ft 11 kts 206°
2026-05-01 08:32 48.11056 16.57138 614 ft 6 kts 230°
2026-05-01 08:32 48.11062 16.57082 618 ft 4 kts 295°
2026-05-01 08:33 48.11064 16.57076 616 ft 0 kts 295°
2026-05-01 08:33 48.11089 16.56997 616 ft 26 kts 296°
2026-05-01 08:33 48.11300 16.56358 622 ft 106 kts 295°
2026-05-01 08:34 48.11718 16.55083 698 ft 155 kts 298°
2026-05-01 08:34 48.12124 16.53616 1546 ft 156 kts 279°
2026-05-01 08:34 48.11851 16.51973 2193 ft 180 kts 236°
2026-05-01 08:34 48.10843 16.50658 2767 ft 205 kts 217°
2026-05-01 08:35 48.09624 16.49316 3298 ft 231 kts 218°
2026-05-01 08:35 48.08229 16.47886 3961 ft 256 kts 205°
2026-05-01 08:35 48.06425 16.47376 4560 ft 277 kts 174°
2026-05-01 08:35 48.04427 16.47707 5146 ft 302 kts 170°
2026-05-01 08:36 48.02281 16.48135 5891 ft 318 kts 169°
2026-05-01 08:36 48.00064 16.48579 6897 ft 325 kts 171°
2026-05-01 08:36 47.97775 16.48611 7836 ft 335 kts 183°
2026-05-01 08:36 47.95472 16.47868 8764 ft 344 kts 197°
2026-05-01 08:37 47.93269 16.46350 9695 ft 353 kts 206°
2026-05-01 08:37 47.91056 16.44693 10570 ft 359 kts 200°
2026-05-01 08:37 47.88657 16.43638 11403 ft 362 kts 187°
2026-05-01 08:37 47.86146 16.43370 12225 ft 362 kts 173°
2026-05-01 08:38 47.83654 16.43896 13046 ft 362 kts 160°
2026-05-01 08:38 47.81215 16.44887 13878 ft 366 kts 159°
2026-05-01 08:38 47.78738 16.45887 14652 ft 371 kts 159°
2026-05-01 08:38 47.76228 16.46887 15400 ft 375 kts 159°
2026-05-01 08:39 47.73695 16.47885 16160 ft 378 kts 159°
2026-05-01 08:39 47.71134 16.48888 16911 ft 382 kts 159°
2026-05-01 08:39 47.68550 16.49901 17654 ft 386 kts 159°
2026-05-01 08:39 47.65936 16.50926 18394 ft 390 kts 159°
2026-05-01 08:40 47.60674 16.52989 19671 ft 398 kts 159°
2026-05-01 08:40 47.57982 16.54040 20284 ft 402 kts 159°
2026-05-01 08:40 47.55259 16.55104 20915 ft 407 kts 159°
2026-05-01 08:41 47.52509 16.56182 21526 ft 411 kts 158°
2026-05-01 08:41 47.49732 16.57270 22147 ft 415 kts 158°
2026-05-01 08:41 47.46925 16.58365 22747 ft 420 kts 158°
2026-05-01 08:41 47.44076 16.59447 23347 ft 426 kts 161°
2026-05-01 08:42 47.41100 16.60049 23903 ft 438 kts 171°
2026-05-01 08:42 47.38023 16.60179 24388 ft 444 kts 172°
2026-05-01 08:42 47.34926 16.60308 24850 ft 447 kts 172°
2026-05-01 08:42 47.31807 16.60447 25307 ft 450 kts 171°
2026-05-01 08:43 47.29728 16.60543 25596 ft 452 kts 171°
2026-05-01 08:43 47.26574 16.60690 26034 ft 455 kts 171°
2026-05-01 08:43 47.23393 16.60832 26467 ft 458 kts 171°
2026-05-01 08:43 47.20190 16.60970 26897 ft 461 kts 171°
2026-05-01 08:44 47.16965 16.61110 27320 ft 464 kts 171°
2026-05-01 08:44 47.13711 16.61249 27737 ft 468 kts 171°
2026-05-01 08:44 47.10493 16.61384 28138 ft 471 kts 171°
2026-05-01 08:44 47.07209 16.61523 28539 ft 473 kts 171°
2026-05-01 08:45 47.03900 16.61666 28925 ft 476 kts 171°
2026-05-01 08:45 47.00571 16.61810 29306 ft 479 kts 171°
2026-05-01 08:45 46.97231 16.61954 29672 ft 482 kts 171°
2026-05-01 08:45 46.93866 16.62100 30031 ft 485 kts 170°
2026-05-01 08:46 46.90484 16.62242 30382 ft 487 kts 170°
2026-05-01 08:46 46.87076 16.62386 30676 ft 490 kts 170°
2026-05-01 08:46 46.83675 16.62646 30951 ft 487 kts 165°
2026-05-01 08:46 46.80406 16.63476 31205 ft 479 kts 157°
2026-05-01 08:47 46.77251 16.64917 31462 ft 471 kts 149°
2026-05-01 08:47 46.74230 16.66731 31731 ft 470 kts 148°
2026-05-01 08:47 46.71202 16.68548 32086 ft 469 kts 148°
2026-05-01 08:47 46.68185 16.70344 32439 ft 469 kts 148°
2026-05-01 08:48 46.65161 16.72133 32787 ft 469 kts 148°
2026-05-01 08:48 46.62135 16.73913 33145 ft 468 kts 149°
2026-05-01 08:48 46.59112 16.75688 33508 ft 468 kts 149°
2026-05-01 08:48 46.56088 16.77468 33848 ft 468 kts 149°
2026-05-01 08:49 46.53073 16.79248 34193 ft 467 kts 149°
2026-05-01 08:49 46.50056 16.81031 34505 ft 467 kts 149°
2026-05-01 08:49 46.47043 16.82809 34797 ft 468 kts 149°
2026-05-01 08:49 46.44024 16.84583 35074 ft 468 kts 150°
2026-05-01 08:50 46.41000 16.86354 35347 ft 469 kts 150°
2026-05-01 08:50 46.38015 16.88100 35603 ft 469 kts 150°
2026-05-01 08:50 46.34983 16.89875 35819 ft 470 kts 151°
2026-05-01 08:50 46.31954 16.91651 36139 ft 469 kts 151°
2026-05-01 08:51 46.28934 16.93417 36468 ft 468 kts 152°
2026-05-01 08:51 46.25919 16.95175 36798 ft 466 kts 152°
2026-05-01 08:51 46.22858 16.96756 37133 ft 469 kts 159°
2026-05-01 08:51 46.19702 16.98023 37361 ft 471 kts 159°
2026-05-01 08:52 46.13316 17.00589 37401 ft 482 kts 159°
2026-05-01 08:52 46.06834 17.03198 37402 ft 485 kts 160°
2026-05-01 08:53 46.00315 17.05803 37404 ft 486 kts 160°
2026-05-01 08:53 45.93798 17.08400 37402 ft 486 kts 160°
2026-05-01 08:54 45.87272 17.10997 37408 ft 486 kts 160°
2026-05-01 08:54 45.80743 17.13589 37325 ft 487 kts 160°
2026-05-01 08:55 45.77519 17.14868 36954 ft 486 kts 160°
2026-05-01 08:55 45.74266 17.16159 36584 ft 485 kts 160°
2026-05-01 08:55 45.71009 17.17449 36219 ft 485 kts 160°
2026-05-01 08:55 45.67758 17.18730 35847 ft 484 kts 160°
2026-05-01 08:56 45.64511 17.20007 35489 ft 484 kts 159°
2026-05-01 08:56 45.61262 17.21286 35137 ft 484 kts 159°
2026-05-01 08:56 45.58015 17.22563 34789 ft 483 kts 159°
2026-05-01 08:56 45.54775 17.23837 34434 ft 483 kts 159°
2026-05-01 08:57 45.51537 17.25111 33822 ft 483 kts 159°
2026-05-01 08:57 45.48296 17.26382 33150 ft 482 kts 158°
2026-05-01 08:57 45.45052 17.27651 32495 ft 482 kts 158°
2026-05-01 08:57 45.41807 17.28919 31854 ft 482 kts 157°
2026-05-01 08:58 45.38574 17.30185 31231 ft 482 kts 157°
2026-05-01 08:58 45.35340 17.31451 30620 ft 482 kts 157°
2026-05-01 08:58 45.32104 17.32712 29925 ft 482 kts 157°
2026-05-01 08:58 45.28862 17.33970 29213 ft 483 kts 158°
2026-05-01 08:59 45.25658 17.35214 28542 ft 484 kts 158°
2026-05-01 08:59 45.22402 17.36479 27858 ft 485 kts 158°
2026-05-01 08:59 45.19142 17.37748 27197 ft 486 kts 159°
2026-05-01 08:59 45.15881 17.39016 26556 ft 487 kts 159°
2026-05-01 09:00 45.12615 17.40298 25931 ft 487 kts 159°
2026-05-01 09:00 45.09382 17.41690 25314 ft 480 kts 158°
2026-05-01 09:00 45.06262 17.43155 24736 ft 465 kts 156°
2026-05-01 09:00 45.03252 17.44643 24193 ft 452 kts 156°
2026-05-01 09:01 45.00320 17.46118 23593 ft 442 kts 156°
2026-05-01 09:01 44.97445 17.47554 22948 ft 434 kts 156°
2026-05-01 09:01 44.94609 17.48943 22335 ft 428 kts 157°
2026-05-01 09:01 44.91814 17.50284 21709 ft 422 kts 158°
2026-05-01 09:02 44.89041 17.51594 21109 ft 417 kts 158°
2026-05-01 09:02 44.86302 17.52880 20527 ft 413 kts 158°
2026-05-01 09:02 44.83580 17.54157 19943 ft 409 kts 158°
2026-05-01 09:02 44.80922 17.55405 19381 ft 406 kts 158°
2026-05-01 09:03 44.78253 17.56663 18832 ft 403 kts 158°
2026-05-01 09:03 44.75609 17.57911 18287 ft 398 kts 158°
2026-05-01 09:03 44.72997 17.59143 17756 ft 394 kts 158°
2026-05-01 09:03 44.70415 17.60361 17218 ft 389 kts 158°
2026-05-01 09:04 44.67854 17.61570 16682 ft 385 kts 158°
2026-05-01 09:04 44.65326 17.62765 16168 ft 382 kts 158°
2026-05-01 09:04 44.62828 17.63939 15692 ft 376 kts 158°
2026-05-01 09:04 44.60357 17.65096 15266 ft 371 kts 158°
2026-05-01 09:05 44.57930 17.66227 14894 ft 365 kts 158°
2026-05-01 09:05 44.55542 17.67338 14533 ft 359 kts 158°
2026-05-01 09:05 44.53185 17.68438 14164 ft 354 kts 157°
2026-05-01 09:05 44.50864 17.69524 13764 ft 349 kts 157°
2026-05-01 09:06 44.48575 17.70594 13363 ft 344 kts 157°
2026-05-01 09:06 44.46323 17.71646 12967 ft 338 kts 157°
2026-05-01 09:06 44.44106 17.72682 12561 ft 334 kts 157°
2026-05-01 09:06 44.41910 17.73706 12164 ft 331 kts 157°
2026-05-01 09:07 44.39760 17.74792 11829 ft 324 kts 152°
2026-05-01 09:07 44.37802 17.76218 11658 ft 311 kts 143°
2026-05-01 09:07 44.36078 17.77941 11529 ft 299 kts 135°
2026-05-01 09:07 44.34593 17.79891 11397 ft 286 kts 127°
2026-05-01 09:08 44.33301 17.81942 11270 ft 277 kts 126°
2026-05-01 09:08 44.32052 17.83934 11138 ft 268 kts 126°
2026-05-01 09:08 44.30853 17.85847 10976 ft 262 kts 125°
2026-05-01 09:08 44.29661 17.87753 10594 ft 260 kts 124°
2026-05-01 09:09 44.28477 17.89650 10266 ft 258 kts 125°
2026-05-01 09:09 44.27299 17.91537 9998 ft 257 kts 126°
2026-05-01 09:09 44.26130 17.93404 9704 ft 255 kts 126°
2026-05-01 09:09 44.24963 17.95259 9349 ft 254 kts 126°
2026-05-01 09:10 44.23800 17.97103 9024 ft 252 kts 126°
2026-05-01 09:10 44.22647 17.98932 8614 ft 251 kts 126°
2026-05-01 09:10 44.21495 18.00762 8301 ft 251 kts 126°
2026-05-01 09:10 44.20353 18.02582 8134 ft 245 kts 126°
2026-05-01 09:11 44.19255 18.04357 7931 ft 240 kts 125°
2026-05-01 09:11 44.18178 18.06118 7696 ft 238 kts 125°
2026-05-01 09:11 44.17112 18.07871 7405 ft 236 kts 124°
2026-05-01 09:11 44.16053 18.09613 7066 ft 236 kts 125°
2026-05-01 09:12 44.14990 18.11354 6772 ft 236 kts 127°
2026-05-01 09:12 44.13693 18.12780 6554 ft 243 kts 149°
2026-05-01 09:12 44.12051 18.13390 6314 ft 249 kts 174°
2026-05-01 09:12 44.10328 18.13001 6119 ft 255 kts 201°
2026-05-01 09:13 44.08796 18.11754 5902 ft 256 kts 212°
2026-05-01 09:13 44.07284 18.10506 5697 ft 256 kts 208°
2026-05-01 09:13 44.05703 18.09388 5484 ft 253 kts 204°
2026-05-01 09:13 44.04091 18.08410 5395 ft 250 kts 200°
2026-05-01 09:14 44.02439 18.07561 5424 ft 255 kts 197°
2026-05-01 09:14 44.00742 18.06841 5407 ft 255 kts 192°
2026-05-01 09:14 43.99017 18.06275 5422 ft 255 kts 188°
2026-05-01 09:14 43.97268 18.05854 5424 ft 255 kts 185°
2026-05-01 09:15 43.96080 18.05696 5424 ft 252 kts 176°
2026-05-01 09:15 43.93859 18.06312 5407 ft 244 kts 151°
2026-05-01 09:15 43.92446 18.07527 5407 ft 236 kts 133°
2026-05-01 09:15 43.91393 18.09226 5410 ft 230 kts 115°
2026-05-01 09:16 43.90645 18.11172 5248 ft 228 kts 110°
2026-05-01 09:16 43.89930 18.13105 4950 ft 221 kts 112°
2026-05-01 09:16 43.89239 18.14967 4639 ft 214 kts 112°
2026-05-01 09:17 43.87895 18.18583 3986 ft 209 kts 112°
2026-05-01 09:17 43.87229 18.20371 3646 ft 209 kts 113°
2026-05-01 09:17 43.85909 18.23913 3030 ft 197 kts 116°
2026-05-01 09:18 43.85302 18.25535 2764 ft 182 kts 115°
2026-05-01 09:18 43.84261 18.28316 2324 ft 149 kts 112°
2026-05-01 09:19 43.83389 18.30665 1853 ft 130 kts 112°
2026-05-01 09:19 43.82981 18.31756 1688 ft 125 kts 110°
2026-05-01 09:19 43.82633 18.32690 1676 ft 77 kts 118°
2026-05-01 09:20 43.82506 18.33048 1677 ft 12 kts 97°
2026-05-01 09:20 43.82551 18.33294 1685 ft 13 kts 68°
2026-05-01 09:21 43.82493 18.33536 1690 ft 13 kts 116°
2026-05-01 09:21 43.82463 18.33637 1690 ft 9 kts 87°
2026-05-01 09:21 43.82515 18.33690 1689 ft 0 kts 25°